SAM042 KAUS-KNUQ

Flight info

Callsign SAM042
Flight time N/A
Altitude FL340
Route AUS7/18L JCT ELP J86 GREBE CHEAR BLD J92 BTY HARNE CZQ PXN ZAPEP/32R
Aircraft B737/M-SDE2E3FGHIRWXY/LB1

Departure

Time N/A
Airport Austin Bergstrom International Airport (KAUS)

Arrival

Time 2026-04-23 01:02
Airport Moffett Federal Airfield (KNUQ)
Time Latitude Longitude Altitude Speed Heading
2026-04-23 00:51 37.03156 -121.71803 8848 ft 250 kts 291°
2026-04-23 00:51 37.03726 -121.73545 8475 ft 252 kts 292°
2026-04-23 00:51 37.04392 -121.75567 8074 ft 253 kts 292°
2026-04-23 00:52 37.05062 -121.77601 7673 ft 253 kts 292°
2026-04-23 00:52 37.05726 -121.79619 7415 ft 246 kts 292°
2026-04-23 00:52 37.06350 -121.81514 7311 ft 228 kts 292°
2026-04-23 00:52 37.06930 -121.83279 7185 ft 212 kts 292°
2026-04-23 00:53 37.07472 -121.84927 7060 ft 198 kts 292°
2026-04-23 00:53 37.07979 -121.86465 6908 ft 187 kts 293°
2026-04-23 00:53 37.08579 -121.87723 6625 ft 185 kts 314°
2026-04-23 00:53 37.09599 -121.88597 6337 ft 184 kts 334°
2026-04-23 00:54 37.10745 -121.89188 6170 ft 175 kts 337°
2026-04-23 00:54 37.11883 -121.89715 5820 ft 176 kts 338°
2026-04-23 00:54 37.13033 -121.90239 5526 ft 173 kts 339°
2026-04-23 00:54 37.14122 -121.90735 5360 ft 163 kts 338°
2026-04-23 00:55 37.15179 -121.91251 5052 ft 162 kts 336°
2026-04-23 00:55 37.16217 -121.91784 4869 ft 162 kts 336°
2026-04-23 00:55 37.17261 -121.92321 4724 ft 163 kts 336°
2026-04-23 00:55 37.18306 -121.92859 4576 ft 162 kts 336°
2026-04-23 00:56 37.19346 -121.93397 4426 ft 162 kts 336°
2026-04-23 00:56 37.20387 -121.93931 4260 ft 162 kts 337°
2026-04-23 00:56 37.21429 -121.94461 4035 ft 160 kts 336°
2026-04-23 00:56 37.22445 -121.94981 3827 ft 157 kts 337°
2026-04-23 00:57 37.23439 -121.95490 3627 ft 150 kts 337°
2026-04-23 00:57 37.24392 -121.95976 3413 ft 147 kts 338°
2026-04-23 00:57 37.25339 -121.96460 3216 ft 148 kts 338°
2026-04-23 00:57 37.26280 -121.96942 3019 ft 146 kts 338°
2026-04-23 00:58 37.27228 -121.97427 2836 ft 146 kts 338°
2026-04-23 00:58 37.28166 -121.97906 2641 ft 147 kts 338°
2026-04-23 00:58 37.29100 -121.98384 2446 ft 145 kts 338°
2026-04-23 00:58 37.30039 -121.98865 2251 ft 145 kts 338°
2026-04-23 00:59 37.30160 -121.98927 2225 ft 144 kts 338°
2026-04-23 00:59 37.31078 -121.99399 2039 ft 143 kts 338°
2026-04-23 00:59 37.31973 -121.99861 1852 ft 137 kts 337°
2026-04-23 00:59 37.32824 -122.00341 1662 ft 133 kts 335°
2026-04-23 01:00 37.33635 -122.00841 1503 ft 128 kts 335°
2026-04-23 01:00 37.34454 -122.01292 1323 ft 130 kts 338°
2026-04-23 01:00 37.35309 -122.01719 1169 ft 136 kts 339°
2026-04-23 01:00 37.36178 -122.02147 1086 ft 133 kts 338°
2026-04-23 01:01 37.37048 -122.02583 904 ft 137 kts 338°
2026-04-23 01:01 37.37934 -122.03022 750 ft 138 kts 339°
2026-04-23 01:01 37.38857 -122.03464 511 ft 143 kts 339°
2026-04-23 01:01 37.39784 -122.03914 298 ft 141 kts 338°
2026-04-23 01:02 37.40678 -122.04356 86 ft 132 kts 340°
2026-04-23 01:02 37.41433 -122.04727 41 ft 85 kts 330°
2026-04-23 01:02 37.41739 -122.04852 40 ft 31 kts 343°
2026-04-23 01:02 37.41851 -122.04861 40 ft 13 kts 41°
2026-04-23 01:03 37.41897 -122.04769 40 ft 15 kts 71°
2026-04-23 01:03 37.41874 -122.04687 40 ft 8 kts 154°
2026-04-23 01:03 37.41867 -122.04683 40 ft 0 kts 154°